Date String (YYYY-MM-DD hh:mm:ss) UTC,Instrument flags,absolute air pressure of the measurement (hPa),sample flow rate (lpm),inlet stack bypass flow (lpm),air temperature of the measurement (°C),ambient temperature measured by the external sensor (°C),aerosol sample conditioner tube jacket temperature (°C),OPC LED temperature (°C),internal box temperature (°C),relative humidity of the measurement (%),span deviation,mass concentration of particles derived from Lorenz-Mie calculation of OPC scattering (μg/m³),mass concentration of particles derived from Lorenz-Mie calculation of OPC scattering (μg/m³),mass concentration of particles derived from Lorenz-Mie calculation of OPC scattering (μg/m³)
DateTimeUTC,F1_M11,P_M11,Q1_M11,Q2_M11,T1_M11,T2_M11,T3_M11,T4_M11,T5_M11,U1_M11,ZSPAN_M11,X0_M11,X2_M11,X1_M11
2024-04-06 02:00:00,SystemResetWarning,0814.1,4.99,000.00,025.7,024.8,000.0,034.3,027.5,008.2,0000.0,0017.20,0004.11,0001.63
2024-04-06 02:01:00,SystemResetWarning,0814.1,5.00,000.00,025.7,024.8,000.0,034.3,027.5,008.2,0000.0,0017.41,0004.09,0001.64
2024-04-06 02:02:00,SystemResetWarning,0814.1,5.00,000.00,025.7,024.8,000.0,034.3,027.6,008.4,0000.0,0018.43,0004.16,0001.65
2024-04-06 02:03:00,SystemResetWarning,0814.2,5.00,000.00,025.7,024.8,000.0,034.3,027.6,008.3,0000.0,0020.85,0004.22,0001.67
2024-04-06 02:04:00,SystemResetWarning,0814.2,5.01,000.00,025.7,024.8,000.0,034.3,027.6,008.0,0000.0,0023.79,0004.25,0001.69
2024-04-06 02:05:00,SystemResetWarning,0814.2,5.00,000.00,025.8,024.8,000.0,034.3,027.5,008.0,0000.0,0025.39,0004.23,0001.69
2024-04-06 02:06:00,SystemResetWarning,0814.2,5.00,000.00,025.7,024.8,000.0,034.3,027.5,008.0,0000.0,0025.19,0004.29,0001.69
2024-04-06 02:07:00,SystemResetWarning,0814.2,5.00,000.00,025.8,024.8,000.0,034.3,027.5,008.0,0000.0,0024.85,0004.32,0001.69
2024-04-06 02:08:00,SystemResetWarning,0814.3,4.99,000.00,025.7,024.8,000.0,034.3,027.5,008.1,0000.0,0024.65,0004.39,0001.72
2024-04-06 02:09:00,SystemResetWarning,0814.3,4.99,000.00,025.7,024.8,000.0,034.3,027.5,008.2,0000.0,0024.57,0004.42,0001.73
2024-04-06 02:10:00,SystemResetWarning,0814.3,5.00,000.00,025.7,024.7,000.0,034.3,027.5,008.0,0000.0,0024.63,0004.39,0001.71
2024-04-06 02:11:00,SystemResetWarning,0814.3,5.00,000.00,025.7,024.7,000.0,034.3,027.5,008.0,0000.0,0024.35,0004.31,0001.71
2024-04-06 02:12:00,SystemResetWarning,0814.3,5.00,000.00,025.7,024.7,000.0,034.3,027.5,008.1,0000.0,0024.97,0004.36,0001.72
2024-04-06 02:13:00,SystemResetWarning,0814.3,5.01,000.00,025.7,024.7,000.0,034.3,027.5,008.2,0000.0,0025.10,0004.44,0001.73
2024-04-06 02:14:00,SystemResetWarning,0814.3,5.00,000.00,025.7,024.7,000.0,034.3,027.5,008.3,0000.0,0023.35,0004.42,0001.71
2024-04-06 02:15:00,SystemResetWarning,0814.3,4.99,000.00,025.7,024.7,000.0,034.3,027.5,008.3,0000.0,0021.71,0004.44,0001.69
2024-04-06 02:16:00,SystemResetWarning,0814.3,5.00,000.00,025.7,024.7,000.0,034.3,027.5,008.3,0000.0,0019.92,0004.49,0001.68
2024-04-06 02:17:00,SystemResetWarning,0814.4,5.01,000.00,025.7,024.7,000.0,034.3,027.5,008.2,0000.0,0022.94,0004.57,0001.70
2024-04-06 02:18:00,SystemResetWarning,0814.3,5.00,000.00,025.7,024.7,000.0,034.3,027.5,008.3,0000.0,0025.23,0004.60,0001.69
2024-04-06 02:19:00,SystemResetWarning,0814.3,5.01,000.00,025.7,024.7,000.0,034.3,027.5,008.2,0000.0,0027.08,0004.58,0001.66
2024-04-06 02:20:00,SystemResetWarning,0814.3,4.99,000.00,025.7,024.7,000.0,034.3,027.5,008.3,0000.0,0027.60,0004.61,0001.64
2024-04-06 02:21:00,SystemResetWarning,0814.3,5.00,000.00,025.7,024.6,000.0,034.3,027.5,008.2,0000.0,0027.51,0004.62,0001.65
2024-04-06 02:22:00,SystemResetWarning,0814.3,5.00,000.00,025.7,024.6,000.0,034.3,027.4,008.3,0000.0,0027.44,0004.64,0001.66
2024-04-06 02:23:00,SystemResetWarning,0814.3,4.99,000.00,025.7,024.6,000.0,034.3,027.4,008.3,0000.0,0028.85,0004.72,0001.67
2024-04-06 02:24:00,SystemResetWarning,0814.3,5.00,000.00,025.7,024.6,000.0,034.3,027.5,008.3,0000.0,0030.08,0004.80,0001.68
2024-04-06 02:25:00,SystemResetWarning,0814.3,5.01,000.00,025.7,024.6,000.0,034.3,027.4,008.4,0000.0,0030.16,0004.87,0001.73
2024-04-06 02:26:00,SystemResetWarning,0814.3,5.00,000.00,025.7,024.6,000.0,034.3,027.4,008.4,0000.0,0030.31,0004.95,0001.74
2024-04-06 02:27:00,SystemResetWarning,0814.3,5.00,000.00,025.7,024.6,000.0,034.3,027.4,008.5,0000.0,0029.45,0005.00,0001.74
2024-04-06 02:28:00,SystemResetWarning,0814.4,5.01,000.00,025.7,024.6,000.0,034.3,027.4,008.6,0000.0,0026.62,0005.05,0001.73
2024-04-06 02:29:00,SystemResetWarning,0814.3,5.01,000.00,025.6,024.6,000.0,034.3,027.4,008.7,0000.0,0027.25,0005.09,0001.74
2024-04-06 02:30:00,SystemResetWarning,0814.3,5.00,000.00,025.6,024.6,000.0,034.3,027.4,008.5,0000.0,0028.45,0005.22,0001.76
2024-04-06 02:31:00,SystemResetWarning,0814.3,4.99,000.00,025.6,024.5,000.0,034.3,027.4,008.8,0000.0,0030.63,0005.35,0001.81
2024-04-06 02:32:00,SystemResetWarning,0814.3,5.00,000.00,025.6,024.5,000.0,034.3,027.4,008.8,0000.0,0032.83,0005.53,0001.84
2024-04-06 02:33:00,SystemResetWarning,0814.4,5.00,000.00,025.6,024.5,000.0,034.3,027.4,009.1,0000.0,0036.56,0005.70,0001.86
2024-04-06 02:34:00,SystemResetWarning,0814.4,5.01,000.00,025.6,024.5,000.0,034.2,027.4,009.3,0000.0,0036.43,0005.69,0001.85
2024-04-06 02:35:00,SystemResetWarning,0814.4,5.01,000.00,025.6,024.6,000.0,034.2,027.4,009.0,0000.0,0036.97,0005.66,0001.84
2024-04-06 02:36:00,SystemResetWarning,0814.4,4.99,000.00,025.6,024.6,000.0,034.2,027.4,008.7,0000.0,0037.45,0005.62,0001.81
2024-04-06 02:37:00,SystemResetWarning,0814.4,4.98,000.00,025.6,024.6,000.0,034.2,027.4,008.7,0000.0,0036.69,0005.62,0001.83
2024-04-06 02:38:00,SystemResetWarning,0814.4,5.00,000.00,025.6,024.6,000.0,034.2,027.4,008.7,0000.0,0037.20,0005.63,0001.85
2024-04-06 02:39:00,SystemResetWarning,0814.4,5.00,000.00,025.6,024.6,000.0,034.2,027.4,008.8,0000.0,0037.85,0005.67,0001.87
2024-04-06 02:40:00,SystemResetWarning,0814.4,5.00,000.00,025.6,024.6,000.0,034.2,027.4,008.9,0000.0,0038.51,0005.67,0001.89
2024-04-06 02:41:00,SystemResetWarning,0814.3,5.00,000.00,025.6,024.6,000.0,034.2,027.4,008.7,0000.0,0037.95,0005.67,0001.91
2024-04-06 02:42:00,SystemResetWarning,0814.3,5.00,000.00,025.6,024.5,000.0,034.2,027.4,008.6,0000.0,0037.66,0005.73,0001.93
2024-04-06 02:43:00,SystemResetWarning,0814.3,5.01,000.00,025.6,024.5,000.0,034.2,027.4,008.7,0000.0,0037.04,0005.69,0001.92
2024-04-06 02:44:00,SystemResetWarning,0814.3,5.00,000.00,025.6,024.5,000.0,034.2,027.3,008.6,0000.0,0036.51,0005.70,0001.95
2024-04-06 02:45:00,SystemResetWarning,0814.3,5.00,000.00,025.6,024.5,000.0,034.2,027.3,008.6,0000.0,0038.32,0005.86,0001.99
2024-04-06 02:46:00,SystemResetWarning,0814.3,4.99,000.00,025.6,024.5,000.0,034.2,027.3,008.6,0000.0,0038.83,0006.00,0002.01
2024-04-06 02:47:00,SystemResetWarning,0814.3,4.99,000.00,025.5,024.4,000.0,034.2,027.3,008.5,0000.0,0040.59,0006.15,0002.04
2024-04-06 02:48:00,SystemResetWarning,0814.3,5.00,000.00,025.5,024.4,000.0,034.2,027.3,008.6,0000.0,0042.54,0006.26,0002.07
2024-04-06 02:49:00,SystemResetWarning,0814.4,5.01,000.00,025.5,024.4,000.0,034.2,027.3,008.6,0000.0,0044.81,0006.38,0002.09
2024-04-06 02:50:00,SystemResetWarning,0814.3,5.00,000.00,025.5,024.4,000.0,034.2,027.3,008.6,0000.0,0047.29,0006.34,0002.09
2024-04-06 02:51:00,SystemResetWarning,0814.4,5.00,000.00,025.5,024.4,000.0,034.2,027.3,008.7,0000.0,0045.24,0006.41,0002.10
2024-04-06 02:52:00,SystemResetWarning,0814.4,5.01,000.00,025.5,024.4,000.0,034.2,027.3,008.7,0000.0,0045.20,0006.46,0002.13
2024-04-06 02:53:00,SystemResetWarning,0814.4,5.01,000.00,025.5,024.4,000.0,034.1,027.3,008.7,0000.0,0046.14,0006.40,0002.13
2024-04-06 02:54:00,SystemResetWarning,0814.4,4.99,000.00,025.5,024.4,000.0,034.1,027.3,008.7,0000.0,0047.90,0006.47,0002.15
2024-04-06 02:55:00,SystemResetWarning,0814.4,5.00,000.00,025.5,024.4,000.0,034.1,027.3,008.7,0000.0,0047.70,0006.59,0002.14
2024-04-06 02:56:00,SystemResetWarning,0814.3,5.00,000.00,025.5,024.4,000.0,034.1,027.3,008.9,0000.0,0046.25,0006.56,0002.13
2024-04-06 02:57:00,SystemResetWarning,0814.3,4.99,000.00,025.5,024.4,000.0,034.1,027.3,008.8,0000.0,0046.72,0006.51,0002.13
2024-04-06 02:58:00,SystemResetWarning,0814.3,5.02,000.00,025.5,024.4,000.0,034.1,027.2,008.8,0000.0,0048.84,0006.47,0002.13
2024-04-06 02:59:00,SystemResetWarning,0814.3,5.00,000.00,025.5,024.4,000.0,034.1,027.2,008.7,0000.0,0049.84,0006.52,0002.15
